Other Surface Observations
Issued by NWS

Home | Current Version | Previous Version | Text Only | Print | Product List | Glossary On
Versions: 1 2 3 4 5 6 7 8 9 10 11 12 13 14 15 16 17 18 19 20 21 22 23 24 25 26 27 28 29 30 31 32 33 34 35 36 37 38 39 40 41 42 43 44 45 46 47 48 49 50
376
SXUS52 KTAE 252206
OSOTAE
OSOTAE
North Florida/South Alabama/Southwest Georgia Weather Roundup
National Weather Service Tallahassee Florida
600 PM EDT MON JUL 25 2016

Note: "fair" indicates few or no clouds below 12,000 feet with no
significant weather and/or obstructions to visibility.

!FLZ017-115-028-034-025-252300
...North Florida...

CITY           SKY/WX    TMP DP  RH WIND       PRES   REMARKS
TALLAHASSEE    MOSUNNY   91  73  55 S13G18    30.00S HX  99
APALACHICOLA   MOSUNNY   87  78  74 S16       29.99S HX 100
PERRY          CLOUDY    79  74  84 S6        30.02F
CROSS CITY       N/A     86  77  74 CALM      30.01S HX  97
JACKSONVILLE   MOSUNNY   91  71  51 SE14G24   30.00S HX  97
$$

!FLZ112-006-005-002-011-252300
...Florida Panhandle...

CITY           SKY/WX    TMP DP  RH WIND       PRES   REMARKS
MARIANNA       MOSUNNY   89  73  59 S9        29.97F HX  97
BONIFAY        NOT AVBL
PANAMA CITY NW LGT RAIN  80  75  84 SE6       29.98S
TYNDALL AFB    MOSUNNY   85  76  72 SE15      29.98S HX  94
TYND DRONE APT NOT AVBL
DE FUNIAK SPR  FAIR      87  73  63 SE8       29.99F HX  94
EGLIN AFB      MOSUNNY   87  75  67 SE15      29.96F HX  97
DESTIN         MOSUNNY   91  77  63 SE16      29.96F HX 104
HURLBURT       NOT AVBL
CRESTVIEW      CLOUDY    79  76  90 E5        29.99S
PENSACOLA      MOSUNNY   90  74  59 SE20      29.95F HX  99
$$

!ALZ063-066-252300
...South Alabama...

CITY           SKY/WX    TMP DP  RH WIND       PRES   REMARKS
DOTHAN         SUNNY     88  72  58 S13       30.02S HX  94
OZARK CAIRNS   MOSUNNY   89  76  64 S13       29.98S HX  99
FT RUCKER HELI MOSUNNY   89  72  56 S14G22    29.97S HX  96
RUCKER HELI 3  FAIR      89  70  53 S16       29.99S HX  95
RUCKER HELI 2  FAIR      90  72  55 S12G20    29.97S HX  97
FLORALA APT    CLOUDY    86  73  65 S8        30.00F HX  93
ANDALUSIA      CLOUDY    90  70  51 SE8G18    29.97R HX  95
TROY           MOSUNNY   91  72  53 S9        29.97S HX  98
EUFALA         FAIR      96  67  38 S12G21    29.96S HX 100
MOBILE         PTSUNNY   90  74  59 SE20G26   29.95S HX  99
$$

!GAZ120>161-252300
...Southwest and South Central Georgia...

CITY           SKY/WX    TMP DP  RH WIND       PRES   REMARKS
THOMASVILLE      N/A     95  72  46 SE6       30.00F HX 103
BAINBRIDGE     SUNNY     91  72  52 SW13G18   29.99S HX  98
MOODY AFB      NOT AVBL
VALDOSTA       PTSUNNY   93  69  45 VRB6      29.99S HX  98
MOULTRIE       SUNNY     91  68  46 S6        30.00F HX  95
BLAKELY        SUNNY     95  68  41 S5        29.98S HX  99
ALBANY         MOSUNNY   94  69  44 SE14      29.99F HX  99
TIFTON         FAIR      92  69  45 S9        29.99S HX  97
FITZGERALD     FAIR      97  71  42 S9        30.01S HX 104
CORDELE        MOCLDY    98  68  37 S7G16     29.98S HX 103
AMERICUS       FAIR      95  61  31 S10       29.99S HX  95
HOMERVILLE     FAIR      95  68  41 SE5       30.00S HX  99
$$

!GMZ750-755-770-775-252300
...Coastal and Buoy Obs...

STATION/POSITION TIME  TEMP    WIND        PRES    VSBY  WAVE
                       AIR SEA DIR/SP/G                  HT/PER
                 (UTC) (F)     (DEG/KT/KT) (MB)    (MI)  (FT/S)
KEATON BEACH     2200   84     210/ 11/ 13 1016.0F
CEDAR KEY        2100   87     250/  9/ 12 1016.5F
C TOWER          2200   81     180/ 10/ 12 1016.5R
APALACHICOLA BUO 2150   83 87  190/ 12/ 14 1016.0R         3/ 5
PANAMA CITY BUOY 2050   83 88  180/ 19/ 21 1014.6          3/ 4
MOBILE BUOY      2100   85 88  150/ 14/ 17 1012.8F
ORANGE BCH AL BU 2150   86 89  130/ 17/ 19 1013.7F         4/ 5
$$




USA.gov is the U.S. government's official web portal to all federal, state and local government web resources and services.